Time,TemperatureF,DewpointF,PressureIn,WindDirection,WindDirectionDegrees,WindSpeedMPH,WindSpeedGustMPH,Humidity,HourlyPrecipIn,Conditions,Clouds,dailyrainin,SoftwareType,DateUTC
2013-05-03 00:01:00,73.8,68.3,30.07,ENE,68,4.6,4.6,83,0.00,RA,SCT,0.00,WeatherDisplay:10.37,2013-05-03 04:01:00,
2013-05-03 00:02:00,73.8,68.3,30.07,ENE,68,3.5,3.5,83,0.00,RA,SCT,0.00,WeatherDisplay:10.37,2013-05-03 04:02:00,
2013-05-03 00:07:00,73.6,68.1,30.06,ESE,112,4.6,4.6,83,0.00,RA,SCT,0.00,WeatherDisplay:10.37,2013-05-03 04:07:00,
2013-05-03 00:12:00,73.6,68.1,30.06,East,90,2.9,2.9,83,0.00,CLR,SCT,0.00,WeatherDisplay:10.37,2013-05-03 04:12:00,
2013-05-03 00:17:00,73.4,67.9,30.06,East,90,3.5,3.5,83,0.00,CLR,SCT,0.00,WeatherDisplay:10.37,2013-05-03 04:17:00,
2013-05-03 00:22:00,73.4,67.9,30.06,ESE,112,4.6,4.6,83,0.00,CLR,SCT,0.00,WeatherDisplay:10.37,2013-05-03 04:22:00,
2013-05-03 00:27:00,73.2,68.1,30.06,ESE,112,4.6,4.6,84,0.00,CLR,SCT,0.00,WeatherDisplay:10.37,2013-05-03 04:27:00,
2013-05-03 00:32:00,73.2,68.1,30.06,East,90,1.2,2.1,84,0.00,CLR,SCT,0.00,WeatherDisplay:10.37,2013-05-03 04:32:00,
2013-05-03 00:37:00,73.0,67.9,30.06,West,270,1.2,1.2,84,0.00,CLR,SCT,0.00,WeatherDisplay:10.37,2013-05-03 04:37:00,
2013-05-03 00:42:00,73.0,67.9,30.06,ENE,68,1.2,1.2,84,0.00,CLR,SCT,0.00,WeatherDisplay:10.37,2013-05-03 04:42:00,
2013-05-03 00:47:00,73.0,67.9,30.05,North,0,0.0,0.8,84,0.00,CLR,SCT,0.00,WeatherDisplay:10.37,2013-05-03 04:47:00,
2013-05-03 00:52:00,73.0,67.9,30.05,SSE,158,0.0,0.3,84,0.00,CLR,SCT,0.00,WeatherDisplay:10.37,2013-05-03 04:52:00,
2013-05-03 00:57:00,73.2,68.1,30.05,SSE,158,0.0,0.0,84,0.00,CLR,SCT,0.00,WeatherDisplay:10.37,2013-05-03 04:57:00,
2013-05-03 01:02:00,73.2,68.1,30.05,South,180,1.3,1.3,84,0.00,CLR,SCT,0.00,WeatherDisplay:10.37,2013-05-03 05:02:00,
2013-05-03 01:07:00,73.2,68.1,30.04,ESE,112,0.0,0.3,84,0.00,CLR,SCT,0.00,WeatherDisplay:10.37,2013-05-03 05:07:00,
2013-05-03 01:12:00,73.2,68.1,30.04,South,180,4.6,4.6,84,0.00,CLR,SCT,0.00,WeatherDisplay:10.37,2013-05-03 05:12:00,
2013-05-03 01:17:00,73.2,68.1,30.04,South,180,2.3,2.3,84,0.00,CLR,SCT,0.00,WeatherDisplay:10.37,2013-05-03 05:17:00,
2013-05-03 01:22:00,73.2,68.1,30.04,SE,135,2.4,2.4,84,0.00,CLR,SCT,0.00,WeatherDisplay:10.37,2013-05-03 05:22:00,
2013-05-03 01:27:00,73.0,67.9,30.03,West,270,3.5,3.5,84,0.00,CLR,SCT,0.00,WeatherDisplay:10.37,2013-05-03 05:27:00,
2013-05-03 01:32:00,73.0,67.9,30.03,SSW,202,2.3,2.3,84,0.00,CLR,SCT,0.00,WeatherDisplay:10.37,2013-05-03 05:32:00,
2013-05-03 01:37:00,72.9,67.7,30.03,WSW,248,1.2,1.2,84,0.00,CLR,SCT,0.00,WeatherDisplay:10.37,2013-05-03 05:37:00,
2013-05-03 01:42:00,72.7,67.6,30.03,SW,225,1.2,1.2,84,0.00,CLR,SCT,0.00,WeatherDisplay:10.37,2013-05-03 05:42:00,
2013-05-03 01:47:00,72.7,67.6,30.01,SW,225,2.3,2.3,84,0.00,CLR,SCT,0.00,WeatherDisplay:10.37,2013-05-03 05:47:00,
2013-05-03 01:52:00,72.5,67.4,30.01,SW,225,2.3,2.3,84,0.00,CLR,SCT,0.00,WeatherDisplay:10.37,2013-05-03 05:52:00,
2013-05-03 01:57:00,72.3,67.2,30.01,SW,225,2.3,2.3,84,0.00,CLR,SCT,0.00,WeatherDisplay:10.37,2013-05-03 05:57:00,
2013-05-03 02:02:00,72.1,67.0,30.01,South,180,1.2,1.7,84,0.00,CLR,SCT,0.00,WeatherDisplay:10.37,2013-05-03 06:02:00,
2013-05-03 02:07:00,72.1,67.0,30.00,SW,225,2.3,2.3,84,0.00,CLR,SCT,0.00,WeatherDisplay:10.37,2013-05-03 06:07:00,
2013-05-03 02:12:00,72.0,66.9,30.00,ESE,112,2.3,2.3,84,0.00,CLR,SCT,0.00,WeatherDisplay:10.37,2013-05-03 06:12:00,
2013-05-03 02:17:00,71.8,66.7,30.00,SW,225,2.3,2.3,84,0.00,CLR,SCT,0.00,WeatherDisplay:10.37,2013-05-03 06:17:00,
2013-05-03 02:22:00,71.6,66.5,30.00,SW,225,2.3,2.3,84,0.00,CLR,SCT,0.00,WeatherDisplay:10.37,2013-05-03 06:22:00,
2013-05-03 02:27:00,71.6,66.2,30.00,SSW,202,2.3,2.3,83,0.00,CLR,SCT,0.00,WeatherDisplay:10.37,2013-05-03 06:27:00,
2013-05-03 02:32:00,71.6,66.2,30.00,SW,225,2.6,2.6,83,0.00,CLR,SCT,0.00,WeatherDisplay:10.37,2013-05-03 06:32:00,
2013-05-03 02:37:00,71.4,66.3,30.00,WSW,248,3.6,3.6,84,0.00,CLR,SCT,0.00,WeatherDisplay:10.37,2013-05-03 06:37:00,
2013-05-03 02:42:00,71.2,66.2,30.00,West,270,2.3,2.3,84,0.00,CLR,SCT,0.00,WeatherDisplay:10.37,2013-05-03 06:42:00,
2013-05-03 02:47:00,71.2,65.8,30.00,SW,225,4.6,4.6,83,0.00,CLR,SCT,0.00,WeatherDisplay:10.37,2013-05-03 06:47:00,
2013-05-03 02:52:00,71.2,65.8,30.00,WSW,248,2.3,2.5,83,0.00,CLR,SCT,0.00,WeatherDisplay:10.37,2013-05-03 06:52:00,
2013-05-03 02:57:00,71.1,65.6,30.00,WSW,248,3.5,3.5,83,0.00,CLR,SCT,0.00,WeatherDisplay:10.37,2013-05-03 06:57:00,
2013-05-03 03:02:00,71.1,65.6,30.00,South,180,3.7,3.7,83,0.00,CLR,SCT,0.00,WeatherDisplay:10.37,2013-05-03 07:02:00,
2013-05-03 03:07:00,71.1,65.6,30.00,SSW,202,3.5,3.5,83,0.00,CLR,SCT,0.00,WeatherDisplay:10.37,2013-05-03 07:07:00,
2013-05-03 03:12:00,71.1,65.6,30.00,WSW,248,1.2,2.0,83,0.00,CLR,SCT,0.00,WeatherDisplay:10.37,2013-05-03 07:12:00,
2013-05-03 03:17:00,71.1,65.6,30.00,WSW,248,4.6,4.6,83,0.00,CLR,SCT,0.00,WeatherDisplay:10.37,2013-05-03 07:17:00,
2013-05-03 03:22:00,71.1,65.6,30.00,NW,315,0.0,1.5,83,0.00,CLR,SCT,0.00,WeatherDisplay:10.37,2013-05-03 07:22:00,
2013-05-03 03:27:00,70.9,65.5,29.99,NW,315,0.0,1.5,83,0.00,CLR,SCT,0.00,WeatherDisplay:10.37,2013-05-03 07:27:00,
2013-05-03 03:32:00,70.7,65.3,29.99,South,180,2.8,2.8,83,0.00,CLR,SCT,0.00,WeatherDisplay:10.37,2013-05-03 07:32:00,
2013-05-03 03:37:00,70.5,65.1,29.99,SW,225,3.5,3.5,83,0.00,CLR,SCT,0.00,WeatherDisplay:10.37,2013-05-03 07:37:00,
2013-05-03 03:42:00,70.5,65.1,29.99,SW,225,3.5,3.5,83,0.00,CLR,SCT,0.00,WeatherDisplay:10.37,2013-05-03 07:42:00,
2013-05-03 03:47:00,70.5,65.1,30.00,SW,225,4.0,4.0,83,0.00,CLR,SCT,0.00,WeatherDisplay:10.37,2013-05-03 07:47:00,
2013-05-03 03:52:00,70.5,64.8,30.00,SSW,202,2.3,2.3,82,0.00,CLR,SCT,0.00,WeatherDisplay:10.37,2013-05-03 07:52:00,
2013-05-03 03:57:00,70.5,64.8,30.00,WSW,248,5.1,5.1,82,0.00,CLR,SCT,0.00,WeatherDisplay:10.37,2013-05-03 07:57:00,
2013-05-03 04:02:00,70.3,64.6,30.00,WSW,248,2.3,2.3,82,0.00,CLR,SCT,0.00,WeatherDisplay:10.37,2013-05-03 08:02:00,
2013-05-03 04:07:00,70.5,64.8,30.01,West,270,1.2,1.5,82,0.00,CLR,SCT,0.00,WeatherDisplay:10.37,2013-05-03 08:07:00,
2013-05-03 04:12:00,70.3,64.2,30.01,WSW,248,4.6,4.6,81,0.00,CLR,SCT,0.00,WeatherDisplay:10.37,2013-05-03 08:12:00,
2013-05-03 04:17:00,70.5,64.4,30.01,North,0,0.0,1.8,81,0.00,CLR,SCT,0.00,WeatherDisplay:10.37,2013-05-03 08:17:00,
2013-05-03 04:22:00,70.3,63.9,30.01,WNW,292,2.3,2.3,80,0.00,CLR,SCT,0.00,WeatherDisplay:10.37,2013-05-03 08:22:00,
2013-05-03 04:27:00,70.3,63.5,30.01,West,270,2.3,2.3,79,0.00,CLR,SCT,0.00,WeatherDisplay:10.37,2013-05-03 08:27:00,
2013-05-03 04:32:00,70.5,63.7,30.01,West,270,0.0,1.2,79,0.00,CLR,SCT,0.00,WeatherDisplay:10.37,2013-05-03 08:32:00,
2013-05-03 04:38:00,70.5,63.7,30.01,West,270,2.3,2.3,79,0.00,CLR,SCT,0.00,WeatherDisplay:10.37,2013-05-03 08:38:00,
2013-05-03 04:43:00,70.5,63.7,30.01,NNW,338,1.2,1.2,79,0.00,CLR,SCT,0.00,WeatherDisplay:10.37,2013-05-03 08:43:00,
2013-05-03 04:48:00,70.3,63.5,30.01,West,270,2.3,2.3,79,0.00,CLR,SCT,0.00,WeatherDisplay:10.37,2013-05-03 08:48:00,
2013-05-03 04:53:00,70.2,63.3,30.01,NW,315,3.5,3.5,79,0.00,CLR,SCT,0.00,WeatherDisplay:10.37,2013-05-03 08:53:00,
2013-05-03 04:58:00,70.2,63.3,30.01,WNW,292,2.5,2.5,79,0.00,CLR,SCT,0.00,WeatherDisplay:10.37,2013-05-03 08:58:00,
2013-05-03 05:03:00,70.0,62.8,30.01,West,270,4.6,4.6,78,0.00,CLR,SCT,0.00,WeatherDisplay:10.37,2013-05-03 09:03:00,
2013-05-03 05:08:00,70.0,62.8,30.01,WSW,248,3.5,3.5,78,0.00,CLR,SCT,0.00,WeatherDisplay:10.37,2013-05-03 09:08:00,
2013-05-03 05:13:00,70.0,62.8,30.01,SW,225,5.8,5.8,78,0.00,CLR,SCT,0.00,WeatherDisplay:10.37,2013-05-03 09:13:00,
2013-05-03 05:18:00,69.8,62.6,30.01,North,0,3.5,3.5,78,0.00,CLR,SCT,0.00,WeatherDisplay:10.37,2013-05-03 09:18:00,
2013-05-03 05:23:00,69.8,62.6,30.01,SSW,202,1.2,1.6,78,0.00,CLR,SCT,0.00,WeatherDisplay:10.37,2013-05-03 09:23:00,
2013-05-03 05:28:00,69.6,62.8,30.01,WNW,292,3.5,3.5,79,0.00,CLR,SCT,0.00,WeatherDisplay:10.37,2013-05-03 09:28:00,
2013-05-03 05:33:00,69.6,62.8,30.01,WNW,292,4.6,4.6,79,0.00,CLR,SCT,0.00,WeatherDisplay:10.37,2013-05-03 09:33:00,
2013-05-03 05:38:00,69.6,62.8,30.01,WSW,248,3.5,3.5,79,0.00,CLR,SCT,0.00,WeatherDisplay:10.37,2013-05-03 09:38:00,
2013-05-03 05:43:00,69.6,62.8,30.01,WSW,248,3.5,3.5,79,0.00,CLR,SCT,0.00,WeatherDisplay:10.37,2013-05-03 09:43:00,
2013-05-03 05:48:00,69.6,62.8,30.02,WSW,248,0.0,2.2,79,0.00,CLR,SCT,0.00,WeatherDisplay:10.37,2013-05-03 09:48:00,
2013-05-03 05:53:00,69.6,62.8,30.02,SSW,202,0.0,1.3,79,0.00,CLR,SCT,0.00,WeatherDisplay:10.37,2013-05-03 09:53:00,
2013-05-03 05:58:00,69.6,62.8,30.02,SW,225,2.3,2.3,79,0.00,CLR,SCT,0.00,WeatherDisplay:10.37,2013-05-03 09:58:00,
2013-05-03 06:03:00,69.6,62.8,30.02,WNW,292,2.3,2.3,79,0.00,CLR,SCT,0.00,WeatherDisplay:10.37,2013-05-03 10:03:00,
2013-05-03 06:08:00,69.4,62.3,30.02,NW,315,3.5,3.5,78,0.00,CLR,SCT,0.00,WeatherDisplay:10.37,2013-05-03 10:08:00,
2013-05-03 06:13:00,69.6,62.5,30.02,NW,315,2.3,2.3,78,0.00,CLR,SCT,0.00,WeatherDisplay:10.37,2013-05-03 10:13:00,
2013-05-03 06:18:00,69.6,62.5,30.02,NNW,338,0.0,0.7,78,0.00,CLR,SCT,0.00,WeatherDisplay:10.37,2013-05-03 10:18:00,
2013-05-03 06:23:00,69.4,62.3,30.02,WSW,248,0.0,0.6,78,0.00,CLR,SCT,0.00,WeatherDisplay:10.37,2013-05-03 10:23:00,
2013-05-03 06:28:00,69.4,62.3,30.02,WSW,248,0.0,0.6,78,0.00,CLR,SCT,0.00,WeatherDisplay:10.37,2013-05-03 10:28:00,
2013-05-03 06:33:00,69.4,62.3,30.02,WSW,248,0.0,0.7,78,0.00,CLR,SCT,0.00,WeatherDisplay:10.37,2013-05-03 10:33:00,
2013-05-03 06:38:00,69.4,62.3,30.02,SW,225,2.3,2.3,78,0.00,CLR,SCT,0.00,WeatherDisplay:10.37,2013-05-03 10:38:00,
2013-05-03 06:43:00,69.4,62.3,30.02,South,180,1.2,1.2,78,0.00,CLR,SCT,0.00,WeatherDisplay:10.37,2013-05-03 10:43:00,
2013-05-03 06:48:00,69.4,62.3,30.03,SW,225,1.2,1.2,78,0.00,CLR,SCT,0.00,WeatherDisplay:10.37,2013-05-03 10:48:00,
2013-05-03 06:53:00,69.4,62.3,30.03,NW,315,0.0,0.1,78,0.00,CLR,SCT,0.00,WeatherDisplay:10.37,2013-05-03 10:53:00,
2013-05-03 06:58:00,69.6,62.5,30.03,South,180,0.0,0.1,78,0.00,CLR,SCT,0.00,WeatherDisplay:10.37,2013-05-03 10:58:00,
2013-05-03 07:03:00,69.6,62.5,30.03,SSE,158,0.0,0.0,78,0.00,CLR,SCT,0.00,WeatherDisplay:10.37,2013-05-03 11:03:00,
2013-05-03 07:08:00,69.4,62.3,30.03,ESE,112,0.0,0.0,78,0.00,CLR,SCT,0.00,WeatherDisplay:10.37,2013-05-03 11:08:00,
2013-05-03 07:13:00,69.4,62.3,30.03,SE,135,0.0,0.0,78,0.00,CLR,SCT,0.00,WeatherDisplay:10.37,2013-05-03 11:13:00,
2013-05-03 07:18:00,69.6,62.5,30.03,WSW,248,0.0,0.0,78,0.00,CLR,SCT,0.00,WeatherDisplay:10.37,2013-05-03 11:18:00,
2013-05-03 07:23:00,69.8,62.3,30.03,SW,225,0.0,0.3,77,0.00,CLR,SCT,0.00,WeatherDisplay:10.37,2013-05-03 11:23:00,
2013-05-03 07:28:00,70.2,62.6,30.03,SSW,202,2.3,2.3,77,0.00,CLR,SCT,0.00,WeatherDisplay:10.37,2013-05-03 11:28:00,
2013-05-03 07:33:00,70.2,62.6,30.03,SW,225,1.2,1.2,77,0.00,CLR,SCT,0.00,WeatherDisplay:10.37,2013-05-03 11:33:00,
2013-05-03 07:38:00,70.3,62.8,30.03,SW,225,3.5,3.5,77,0.00,CLR,SCT,0.00,WeatherDisplay:10.37,2013-05-03 11:38:00,
2013-05-03 07:43:00,70.5,63.0,30.03,SW,225,3.5,3.5,77,0.00,CLR,SCT,0.00,WeatherDisplay:10.37,2013-05-03 11:43:00,
2013-05-03 07:48:00,70.7,63.1,30.03,SW,225,1.3,1.3,77,0.00,CLR,SCT,0.00,WeatherDisplay:10.37,2013-05-03 11:48:00,
2013-05-03 07:53:00,70.9,63.3,30.03,SSW,202,3.2,3.2,77,0.00,CLR,SCT,0.00,WeatherDisplay:10.37,2013-05-03 11:53:00,
2013-05-03 07:58:00,70.9,62.9,30.03,SW,225,4.6,4.6,76,0.00,CLR,SCT,0.00,WeatherDisplay:10.37,2013-05-03 11:58:00,
2013-05-03 08:03:00,71.1,63.1,30.03,WSW,248,3.5,3.5,76,0.00,CLR,SCT,0.00,WeatherDisplay:10.37,2013-05-03 12:03:00,
2013-05-03 08:08:00,71.2,63.3,30.04,SW,225,4.6,4.6,76,0.00,CLR,SCT,0.00,WeatherDisplay:10.37,2013-05-03 12:08:00,
2013-05-03 08:13:00,71.4,63.1,30.04,SW,225,3.5,3.5,75,0.00,CLR,SCT,0.00,WeatherDisplay:10.37,2013-05-03 12:13:00,
2013-05-03 08:18:00,71.6,63.3,30.04,South,180,4.6,4.6,75,0.00,CLR,SCT,0.00,WeatherDisplay:10.37,2013-05-03 12:18:00,
2013-05-03 08:23:00,71.8,63.4,30.04,SW,225,3.5,3.5,75,0.00,CLR,SCT,0.00,WeatherDisplay:10.37,2013-05-03 12:23:00,
2013-05-03 08:28:00,72.0,63.6,30.05,WSW,248,3.5,3.5,75,0.00,CLR,SCT,0.00,WeatherDisplay:10.37,2013-05-03 12:28:00,
2013-05-03 08:33:00,72.0,63.2,30.05,SW,225,3.5,3.5,74,0.00,CLR,SCT,0.00,WeatherDisplay:10.37,2013-05-03 12:33:00,
2013-05-03 08:38:00,72.1,63.4,30.05,SW,225,4.6,4.6,74,0.00,CLR,SCT,0.00,WeatherDisplay:10.37,2013-05-03 12:38:00,
2013-05-03 08:43:00,72.5,63.7,30.05,SW,225,2.3,2.8,74,0.00,CLR,SCT,0.00,WeatherDisplay:10.37,2013-05-03 12:43:00,
2013-05-03 08:48:00,72.5,63.7,30.08,SW,225,5.8,5.8,74,0.00,CLR,SCT,0.00,WeatherDisplay:10.37,2013-05-03 12:48:00,
2013-05-03 08:53:00,72.9,63.7,30.08,WSW,248,2.3,2.8,73,0.00,CLR,SCT,0.00,WeatherDisplay:10.37,2013-05-03 12:53:00,
2013-05-03 08:58:00,73.0,63.9,30.08,West,270,3.5,3.5,73,0.00,CLR,SCT,0.00,WeatherDisplay:10.37,2013-05-03 12:58:00,
2013-05-03 09:03:00,73.2,63.6,30.08,SW,225,5.8,5.8,72,0.00,CLR,SCT,0.00,WeatherDisplay:10.37,2013-05-03 13:03:00,
2013-05-03 09:08:00,73.4,63.0,30.08,SW,225,9.2,9.2,70,0.00,CLR,SCT,0.00,WeatherDisplay:10.37,2013-05-03 13:08:00,
2013-05-03 09:13:00,73.4,62.6,30.08,SW,225,6.9,6.9,69,0.00,CLR,SCT,0.00,WeatherDisplay:10.37,2013-05-03 13:13:00,
2013-05-03 09:18:00,73.6,62.8,30.08,SW,225,5.4,5.4,69,0.00,CLR,SCT,0.00,WeatherDisplay:10.37,2013-05-03 13:18:00,
2013-05-03 09:23:00,73.8,62.5,30.08,WSW,248,6.9,6.9,68,0.00,CLR,SCT,0.00,WeatherDisplay:10.37,2013-05-03 13:23:00,
2013-05-03 09:28:00,73.8,61.7,30.08,SW,225,6.9,6.9,66,0.00,CLR,SCT,0.00,WeatherDisplay:10.37,2013-05-03 13:28:00,
2013-05-03 09:34:00,73.9,61.9,30.08,West,270,5.8,5.8,66,0.00,CLR,SCT,0.00,WeatherDisplay:10.37,2013-05-03 13:34:00,
2013-05-03 09:39:00,74.1,62.5,30.08,West,270,3.5,3.9,67,0.00,CLR,SCT,0.00,WeatherDisplay:10.37,2013-05-03 13:39:00,
2013-05-03 09:44:00,74.5,62.4,30.08,West,270,9.2,9.2,66,0.00,CLR,SCT,0.00,WeatherDisplay:10.37,2013-05-03 13:44:00,
2013-05-03 09:49:00,74.7,62.1,30.08,South,180,4.6,4.6,65,0.00,CLR,SCT,0.00,WeatherDisplay:10.37,2013-05-03 13:49:00,
2013-05-03 09:54:00,74.8,62.3,30.08,South,180,6.9,6.9,65,0.00,CLR,SCT,0.00,WeatherDisplay:10.37,2013-05-03 13:54:00,
2013-05-03 09:59:00,75.2,61.7,30.08,SW,225,6.9,6.9,63,0.00,CLR,SCT,0.00,WeatherDisplay:10.37,2013-05-03 13:59:00,
2013-05-03 10:04:00,75.2,61.7,30.08,WSW,248,4.6,4.6,63,0.00,CLR,SCT,0.00,WeatherDisplay:10.37,2013-05-03 14:04:00,
2013-05-03 10:09:00,75.6,61.6,30.09,South,180,5.8,5.8,62,0.00,CLR,SCT,0.00,WeatherDisplay:10.37,2013-05-03 14:09:00,
2013-05-03 10:14:00,75.6,60.7,30.09,West,270,5.8,5.8,60,0.00,CLR,SCT,0.00,WeatherDisplay:10.37,2013-05-03 14:14:00,
2013-05-03 10:19:00,75.7,60.9,30.09,SW,225,9.2,9.2,60,0.00,CLR,SCT,0.00,WeatherDisplay:10.37,2013-05-03 14:19:00,
2013-05-03 10:24:00,75.7,59.9,30.09,WSW,248,6.9,6.9,58,0.00,CLR,SCT,0.00,WeatherDisplay:10.37,2013-05-03 14:24:00,
2013-05-03 10:29:00,75.9,60.6,30.09,WSW,248,3.5,4.5,59,0.00,CLR,SCT,0.00,WeatherDisplay:10.37,2013-05-03 14:29:00,
2013-05-03 10:34:00,76.1,60.7,30.09,WSW,248,5.8,5.8,59,0.00,CLR,SCT,0.00,WeatherDisplay:10.37,2013-05-03 14:34:00,
2013-05-03 10:39:00,76.3,60.9,30.09,SW,225,4.6,4.6,59,0.00,CLR,SCT,0.00,WeatherDisplay:10.37,2013-05-03 14:39:00,
2013-05-03 10:44:00,76.5,60.6,30.09,SW,225,8.1,8.1,58,0.00,CLR,SCT,0.00,WeatherDisplay:10.37,2013-05-03 14:44:00,
2013-05-03 10:49:00,76.6,60.8,30.09,West,270,4.9,4.9,58,0.00,CLR,SCT,0.00,WeatherDisplay:10.37,2013-05-03 14:49:00,
2013-05-03 10:54:00,76.6,60.8,30.09,SW,225,4.6,4.6,58,0.00,CLR,SCT,0.00,WeatherDisplay:10.37,2013-05-03 14:54:00,
2013-05-03 10:59:00,76.8,60.4,30.09,West,270,8.1,8.1,57,0.00,CLR,SCT,0.00,WeatherDisplay:10.37,2013-05-03 14:59:00,
2013-05-03 11:04:00,77.2,60.8,30.09,SSE,158,3.5,3.5,57,0.00,CLR,SCT,0.00,WeatherDisplay:10.37,2013-05-03 15:04:00,
2013-05-03 11:09:00,77.4,60.4,30.09,WSW,248,3.5,3.5,56,0.00,CLR,SCT,0.00,WeatherDisplay:10.37,2013-05-03 15:09:00,
2013-05-03 11:14:00,77.5,61.1,30.09,WSW,248,5.8,5.8,57,0.00,CLR,SCT,0.00,WeatherDisplay:10.37,2013-05-03 15:14:00,
2013-05-03 11:19:00,77.7,60.8,30.09,South,180,5.8,5.8,56,0.00,CLR,SCT,0.00,WeatherDisplay:10.37,2013-05-03 15:19:00,
2013-05-03 11:24:00,77.9,60.4,30.09,WSW,248,8.1,8.1,55,0.00,CLR,SCT,0.00,WeatherDisplay:10.37,2013-05-03 15:24:00,
2013-05-03 11:29:00,78.1,60.1,30.08,WSW,248,3.5,3.7,54,0.00,CLR,SCT,0.00,WeatherDisplay:10.37,2013-05-03 15:29:00,
2013-05-03 11:34:00,78.4,59.4,30.08,WNW,292,6.9,6.9,52,0.00,CLR,SCT,0.00,WeatherDisplay:10.37,2013-05-03 15:34:00,
2013-05-03 11:39:00,78.8,58.6,30.08,SW,225,5.8,5.8,50,0.00,CLR,SCT,0.00,WeatherDisplay:10.37,2013-05-03 15:39:00,
2013-05-03 11:44:00,78.8,58.6,30.08,NW,315,3.6,3.6,50,0.00,CLR,SCT,0.00,WeatherDisplay:10.37,2013-05-03 15:44:00,
2013-05-03 11:49:00,79.0,58.8,30.09,SW,225,2.3,2.3,50,0.00,CLR,SCT,0.00,WeatherDisplay:10.37,2013-05-03 15:49:00,
2013-05-03 11:54:00,79.3,59.1,30.09,ESE,112,3.5,3.5,50,0.00,CLR,SCT,0.00,WeatherDisplay:10.37,2013-05-03 15:54:00,
2013-05-03 11:59:00,79.5,58.7,30.09,WSW,248,6.9,6.9,49,0.00,CLR,SCT,0.00,WeatherDisplay:10.37,2013-05-03 15:59:00,
2013-05-03 12:04:00,79.7,58.3,30.09,West,270,4.6,4.6,48,0.00,CLR,SCT,0.00,WeatherDisplay:10.37,2013-05-03 16:04:00,
2013-05-03 12:09:00,79.9,58.4,30.09,West,270,2.3,3.3,48,0.00,CLR,SCT,0.00,WeatherDisplay:10.37,2013-05-03 16:09:00,
2013-05-03 12:14:00,79.9,58.4,30.09,South,180,4.9,4.9,48,0.00,CLR,SCT,0.00,WeatherDisplay:10.37,2013-05-03 16:14:00,
2013-05-03 12:19:00,80.2,58.8,30.09,West,270,3.5,3.5,48,0.00,CLR,SCT,0.00,WeatherDisplay:10.37,2013-05-03 16:19:00,
2013-05-03 12:24:00,80.4,58.9,30.09,West,270,3.5,3.5,48,0.00,CLR,SCT,0.00,WeatherDisplay:10.37,2013-05-03 16:24:00,
2013-05-03 12:29:00,80.6,58.5,30.08,West,270,3.5,3.5,47,0.00,CLR,SCT,0.00,WeatherDisplay:10.37,2013-05-03 16:29:00,
2013-05-03 12:34:00,80.6,58.5,30.08,SW,225,4.6,4.6,47,0.00,CLR,SCT,0.00,WeatherDisplay:10.37,2013-05-03 16:34:00,
2013-05-03 12:39:00,80.8,58.1,30.08,WSW,248,6.9,6.9,46,0.00,CLR,SCT,0.00,WeatherDisplay:10.37,2013-05-03 16:39:00,
2013-05-03 12:44:00,81.1,58.4,30.08,SW,225,2.3,3.2,46,0.00,CLR,SCT,0.00,WeatherDisplay:10.37,2013-05-03 16:44:00,
2013-05-03 12:49:00,81.1,58.4,30.07,East,90,3.5,3.5,46,0.00,CLR,SCT,0.00,WeatherDisplay:10.37,2013-05-03 16:49:00,
2013-05-03 12:54:00,81.5,58.7,30.07,West,270,3.5,3.5,46,0.00,CLR,SCT,0.00,WeatherDisplay:10.37,2013-05-03 16:54:00,
2013-05-03 12:59:00,81.7,57.6,30.07,South,180,5.8,5.8,44,0.00,CLR,SCT,0.00,WeatherDisplay:10.37,2013-05-03 16:59:00,
2013-05-03 13:04:00,82.0,58.6,30.07,NNW,338,2.3,2.8,45,0.00,CLR,SCT,0.00,WeatherDisplay:10.37,2013-05-03 17:04:00,
2013-05-03 13:09:00,81.9,58.4,30.07,SSW,202,3.5,3.5,45,0.00,CLR,SCT,0.00,WeatherDisplay:10.37,2013-05-03 17:09:00,
2013-05-03 13:14:00,82.0,56.7,30.07,SSW,202,8.1,8.1,42,0.00,CLR,SCT,0.00,WeatherDisplay:10.37,2013-05-03 17:14:00,
2013-05-03 13:19:00,82.2,58.1,30.07,WSW,248,4.6,4.6,44,0.00,CLR,SCT,0.00,WeatherDisplay:10.37,2013-05-03 17:19:00,
2013-05-03 13:24:00,82.8,58.6,30.07,WSW,248,3.5,3.5,44,0.00,CLR,SCT,0.00,WeatherDisplay:10.37,2013-05-03 17:24:00,
2013-05-03 13:29:00,82.8,58.6,30.06,South,180,4.6,4.6,44,0.00,CLR,SCT,0.00,WeatherDisplay:10.37,2013-05-03 17:29:00,
2013-05-03 13:34:00,82.9,58.1,30.06,SW,225,6.9,6.9,43,0.00,CLR,SCT,0.00,WeatherDisplay:10.37,2013-05-03 17:34:00,
2013-05-03 13:39:00,83.3,56.5,30.06,SW,225,2.9,3.0,40,0.00,CLR,SCT,0.00,WeatherDisplay:10.37,2013-05-03 17:39:00,
2013-05-03 13:44:00,83.5,57.3,30.06,South,180,3.5,3.5,41,0.00,CLR,SCT,0.00,WeatherDisplay:10.37,2013-05-03 17:44:00,
2013-05-03 13:49:00,83.7,57.5,30.06,SE,135,5.8,5.8,41,0.00,CLR,SCT,0.00,WeatherDisplay:10.37,2013-05-03 17:49:00,
2013-05-03 13:54:00,83.8,56.2,30.06,SSW,202,4.6,4.6,39,0.00,CLR,SCT,0.00,WeatherDisplay:10.37,2013-05-03 17:54:00,
2013-05-03 13:59:00,84.2,56.6,30.06,South,180,5.8,5.8,39,0.00,CLR,SCT,0.00,WeatherDisplay:10.37,2013-05-03 17:59:00,
2013-05-03 14:04:00,84.7,57.0,30.06,South,180,2.3,2.8,39,0.00,CLR,SCT,0.00,WeatherDisplay:10.37,2013-05-03 18:04:00,
2013-05-03 14:09:00,84.7,57.0,30.06,West,270,5.8,5.8,39,0.00,CLR,SCT,0.00,WeatherDisplay:10.37,2013-05-03 18:09:00,
2013-05-03 14:14:00,84.9,57.2,30.06,East,90,2.3,2.3,39,0.00,CLR,SCT,0.00,WeatherDisplay:10.37,2013-05-03 18:14:00,
2013-05-03 14:19:00,84.9,58.6,30.06,WNW,292,4.6,4.6,41,0.00,CLR,SCT,0.00,WeatherDisplay:10.37,2013-05-03 18:19:00,
2013-05-03 14:25:00,85.1,60.7,30.06,SE,135,2.3,2.3,44,0.00,CLR,SCT,0.00,WeatherDisplay:10.37,2013-05-03 18:25:00,
2013-05-03 14:30:00,84.9,60.6,30.05,West,270,7.0,7.0,44,0.00,CLR,SCT,0.00,WeatherDisplay:10.37,2013-05-03 18:30:00,
2013-05-03 14:35:00,84.6,60.2,30.05,ESE,112,5.8,5.8,44,0.00,CLR,SCT,0.00,WeatherDisplay:10.37,2013-05-03 18:35:00,
2013-05-03 14:40:00,84.4,60.1,30.05,SE,135,4.6,4.6,44,0.00,CLR,SCT,0.00,WeatherDisplay:10.37,2013-05-03 18:40:00,
2013-05-03 14:45:00,84.6,60.2,30.05,SE,135,3.5,3.5,44,0.00,CLR,SCT,0.00,WeatherDisplay:10.37,2013-05-03 18:45:00,
2013-05-03 14:50:00,84.4,60.1,30.04,SW,225,3.5,3.5,44,0.00,CLR,SCT,0.00,WeatherDisplay:10.37,2013-05-03 18:50:00,
2013-05-03 14:55:00,84.2,59.9,30.04,South,180,4.9,4.9,44,0.00,CLR,SCT,0.00,WeatherDisplay:10.37,2013-05-03 18:55:00,
2013-05-03 15:00:00,84.4,60.1,30.04,ESE,112,2.3,3.5,44,0.00,CLR,SCT,0.00,WeatherDisplay:10.37,2013-05-03 19:00:00,
2013-05-03 15:05:00,85.5,61.1,30.04,ESE,112,6.9,6.9,44,0.00,CLR,SCT,0.00,WeatherDisplay:10.37,2013-05-03 19:05:00,
2013-05-03 15:10:00,85.6,61.2,30.03,East,90,6.9,6.9,44,0.00,CLR,SCT,0.00,WeatherDisplay:10.37,2013-05-03 19:10:00,
2013-05-03 15:15:00,85.3,59.6,30.03,SSE,158,5.8,5.8,42,0.00,CLR,SCT,0.00,WeatherDisplay:10.37,2013-05-03 19:15:00,
2013-05-03 15:20:00,85.6,60.6,30.03,SSE,158,6.9,6.9,43,0.00,CLR,SCT,0.00,WeatherDisplay:10.37,2013-05-03 19:20:00,
2013-05-03 15:25:00,86.0,60.9,30.03,SSE,158,5.8,5.8,43,0.00,CLR,SCT,0.00,WeatherDisplay:10.37,2013-05-03 19:25:00,
2013-05-03 15:30:00,86.2,61.1,30.03,SE,135,6.9,6.9,43,0.00,CLR,SCT,0.00,WeatherDisplay:10.37,2013-05-03 19:30:00,
2013-05-03 15:35:00,86.4,60.6,30.03,SE,135,6.9,6.9,42,0.00,CLR,SCT,0.00,WeatherDisplay:10.37,2013-05-03 19:35:00,
2013-05-03 15:40:00,86.2,60.4,30.03,ESE,112,6.9,6.9,42,0.00,CLR,SCT,0.00,WeatherDisplay:10.37,2013-05-03 19:40:00,
2013-05-03 15:45:00,85.5,59.8,30.03,SE,135,7.2,7.2,42,0.00,CLR,SCT,0.00,WeatherDisplay:10.37,2013-05-03 19:45:00,
2013-05-03 15:50:00,85.8,60.7,30.02,ESE,112,6.1,6.1,43,0.00,CLR,SCT,0.00,WeatherDisplay:10.37,2013-05-03 19:50:00,
2013-05-03 15:55:00,85.3,59.6,30.02,ESE,112,6.9,6.9,42,0.00,CLR,SCT,0.00,WeatherDisplay:10.37,2013-05-03 19:55:00,
2013-05-03 16:00:00,84.6,58.3,30.02,SSE,158,6.9,6.9,41,0.00,CLR,SCT,0.00,WeatherDisplay:10.37,2013-05-03 20:00:00,
2013-05-03 16:05:00,84.4,59.4,30.02,SE,135,5.8,5.8,43,0.00,CLR,SCT,0.00,WeatherDisplay:10.37,2013-05-03 20:05:00,
2013-05-03 16:10:00,84.4,60.1,30.00,SSE,158,8.1,8.1,44,0.00,CLR,SCT,0.00,WeatherDisplay:10.37,2013-05-03 20:10:00,
2013-05-03 16:15:00,84.7,60.4,30.00,SSW,202,8.5,8.5,44,0.00,CLR,SCT,0.00,WeatherDisplay:10.37,2013-05-03 20:15:00,
2013-05-03 16:20:00,84.2,59.9,30.00,SW,225,11.5,11.5,44,0.00,CLR,SCT,0.00,WeatherDisplay:10.37,2013-05-03 20:20:00,
2013-05-03 16:25:00,84.0,60.4,30.00,SSW,202,5.8,5.8,45,0.00,CLR,SCT,0.00,WeatherDisplay:10.37,2013-05-03 20:25:00,
2013-05-03 16:30:00,84.6,60.9,30.02,South,180,9.2,9.2,45,0.00,CLR,SCT,0.00,WeatherDisplay:10.37,2013-05-03 20:30:00,
2013-05-03 16:35:00,84.2,61.2,30.02,South,180,5.8,5.8,46,0.00,CLR,SCT,0.00,WeatherDisplay:10.37,2013-05-03 20:35:00,
2013-05-03 16:40:00,84.6,60.9,30.02,North,0,5.8,5.8,45,0.00,CLR,SCT,0.00,WeatherDisplay:10.37,2013-05-03 20:40:00,
2013-05-03 16:45:00,84.6,61.5,30.02,ESE,112,5.8,5.8,46,0.00,CLR,SCT,0.00,WeatherDisplay:10.37,2013-05-03 20:45:00,
2013-05-03 16:50:00,84.6,60.9,30.00,South,180,4.6,4.6,45,0.00,CLR,SCT,0.00,WeatherDisplay:10.37,2013-05-03 20:50:00,
2013-05-03 16:55:00,84.7,61.0,30.00,SSE,158,5.8,5.8,45,0.00,CLR,SCT,0.00,WeatherDisplay:10.37,2013-05-03 20:55:00,
2013-05-03 17:00:00,85.1,61.4,30.00,SSE,158,5.8,5.8,45,0.00,CLR,SCT,0.00,WeatherDisplay:10.37,2013-05-03 21:00:00,
2013-05-03 17:05:00,85.3,60.9,30.00,South,180,4.6,4.6,44,0.00,CLR,SCT,0.00,WeatherDisplay:10.37,2013-05-03 21:05:00,
2013-05-03 17:10:00,85.5,61.1,30.01,SSE,158,8.1,8.1,44,0.00,CLR,SCT,0.00,WeatherDisplay:10.37,2013-05-03 21:10:00,
2013-05-03 17:15:00,85.3,60.3,30.01,SSW,202,4.6,4.8,43,0.00,CLR,SCT,0.00,WeatherDisplay:10.37,2013-05-03 21:15:00,
2013-05-03 17:20:00,85.6,60.6,30.01,ESE,112,10.4,10.4,43,0.00,CLR,SCT,0.00,WeatherDisplay:10.37,2013-05-03 21:20:00,
2013-05-03 17:25:00,85.6,59.9,30.01,South,180,9.2,9.2,42,0.00,CLR,SCT,0.00,WeatherDisplay:10.37,2013-05-03 21:25:00,
2013-05-03 17:30:00,85.3,59.6,30.00,SSW,202,5.8,5.8,42,0.00,CLR,SCT,0.00,WeatherDisplay:10.37,2013-05-03 21:30:00,
2013-05-03 17:35:00,84.7,57.7,30.00,South,180,6.9,6.9,40,0.00,CLR,SCT,0.00,WeatherDisplay:10.37,2013-05-03 21:35:00,
2013-05-03 17:40:00,84.2,58.6,30.00,WSW,248,3.5,4.1,42,0.00,CLR,SCT,0.00,WeatherDisplay:10.37,2013-05-03 21:40:00,
2013-05-03 17:45:00,83.7,58.8,30.00,SE,135,5.8,5.8,43,0.00,CLR,SCT,0.00,WeatherDisplay:10.37,2013-05-03 21:45:00,
2013-05-03 17:50:00,83.1,58.3,29.99,WNW,292,3.5,3.5,43,0.00,CLR,SCT,0.00,WeatherDisplay:10.37,2013-05-03 21:50:00,
2013-05-03 17:56:00,82.8,57.3,29.99,WSW,248,5.8,5.8,42,0.00,CLR,SCT,0.00,WeatherDisplay:10.37,2013-05-03 21:56:00,
2013-05-03 18:01:00,82.0,56.7,29.99,WSW,248,5.8,5.8,42,0.00,CLR,SCT,0.00,WeatherDisplay:10.37,2013-05-03 22:01:00,
2013-05-03 18:06:00,81.9,57.2,29.99,SW,225,3.5,3.5,43,0.00,CLR,SCT,0.00,WeatherDisplay:10.37,2013-05-03 22:06:00,
2013-05-03 18:11:00,81.9,56.5,29.98,SSW,202,4.6,4.6,42,0.00,CLR,SCT,0.00,WeatherDisplay:10.37,2013-05-03 22:11:00,
2013-05-03 18:16:00,81.9,57.2,29.98,SW,225,2.3,2.3,43,0.00,CLR,SCT,0.00,WeatherDisplay:10.37,2013-05-03 22:16:00,
2013-05-03 18:21:00,81.7,57.0,29.98,SW,225,3.5,3.5,43,0.00,CLR,SCT,0.00,WeatherDisplay:10.37,2013-05-03 22:21:00,
2013-05-03 18:26:00,81.7,57.0,29.98,WSW,248,3.5,3.5,43,0.00,CLR,SCT,0.00,WeatherDisplay:10.37,2013-05-03 22:26:00,
2013-05-03 18:31:00,82.4,57.0,29.98,West,270,4.6,4.6,42,0.00,CLR,SCT,0.00,WeatherDisplay:10.37,2013-05-03 22:31:00,
2013-05-03 18:36:00,83.1,57.6,29.98,West,270,2.3,2.3,42,0.00,CLR,SCT,0.00,WeatherDisplay:10.37,2013-05-03 22:36:00,
2013-05-03 18:41:00,84.4,58.1,29.98,South,180,2.3,2.3,41,0.00,CLR,SCT,0.00,WeatherDisplay:10.37,2013-05-03 22:41:00,
2013-05-03 18:46:00,87.4,58.7,29.98,WSW,248,4.6,4.6,38,0.00,CLR,SCT,0.00,WeatherDisplay:10.37,2013-05-03 22:46:00,
2013-05-03 18:51:00,84.4,59.4,29.99,WSW,248,3.5,3.5,43,0.00,CLR,SCT,0.00,WeatherDisplay:10.37,2013-05-03 22:51:00,
2013-05-03 18:56:00,82.4,55.7,29.99,WSW,248,5.8,5.8,40,0.00,CLR,SCT,0.00,WeatherDisplay:10.37,2013-05-03 22:56:00,
2013-05-03 19:01:00,81.1,55.9,29.99,SW,225,4.6,4.6,42,0.00,CLR,SCT,0.00,WeatherDisplay:10.37,2013-05-03 23:01:00,
2013-05-03 19:06:00,80.8,56.2,29.99,South,180,2.3,3.7,43,0.00,CLR,SCT,0.00,WeatherDisplay:10.37,2013-05-03 23:06:00,
2013-05-03 19:11:00,80.6,56.0,29.98,South,180,3.5,3.5,43,0.00,CLR,SCT,0.00,WeatherDisplay:10.37,2013-05-03 23:11:00,
2013-05-03 19:16:00,80.2,57.0,29.98,SW,225,3.5,3.5,45,0.00,CLR,SCT,0.00,WeatherDisplay:10.37,2013-05-03 23:16:00,
2013-05-03 19:21:00,80.1,56.8,29.98,SSE,158,2.9,2.9,45,0.00,CLR,SCT,0.00,WeatherDisplay:10.37,2013-05-03 23:21:00,
2013-05-03 19:26:00,79.9,57.3,29.98,South,180,2.6,2.6,46,0.00,CLR,SCT,0.00,WeatherDisplay:10.37,2013-05-03 23:26:00,
2013-05-03 19:31:00,79.9,57.3,29.96,SSE,158,3.5,3.5,46,0.00,CLR,SCT,0.00,WeatherDisplay:10.37,2013-05-03 23:31:00,
2013-05-03 19:36:00,79.7,57.7,29.96,SW,225,3.5,3.5,47,0.00,CLR,SCT,0.00,WeatherDisplay:10.37,2013-05-03 23:36:00,
2013-05-03 19:41:00,79.5,57.5,29.96,WSW,248,5.8,5.8,47,0.00,CLR,SCT,0.00,WeatherDisplay:10.37,2013-05-03 23:41:00,
2013-05-03 19:46:00,79.3,57.4,29.96,South,180,3.5,3.5,47,0.00,CLR,SCT,0.00,WeatherDisplay:10.37,2013-05-03 23:46:00,
2013-05-03 19:51:00,79.2,57.8,29.98,SW,225,1.2,2.0,48,0.00,CLR,SCT,0.00,WeatherDisplay:10.37,2013-05-03 23:51:00,
2013-05-03 19:56:00,79.0,57.6,29.98,SW,225,1.2,1.3,48,0.00,CLR,SCT,0.00,WeatherDisplay:10.37,2013-05-03 23:56:00,
2013-05-03 20:02:00,79.0,58.2,29.98,WSW,248,3.6,3.6,49,0.00,CLR,SCT,0.00,WeatherDisplay:10.37,2013-05-04 00:02:00,
2013-05-03 20:07:00,78.8,58.0,29.99,South,180,0.0,1.4,49,0.00,CLR,SCT,0.00,WeatherDisplay:10.37,2013-05-04 00:07:00,
2013-05-03 20:12:00,78.8,58.0,29.99,SW,225,2.3,2.3,49,0.00,CLR,SCT,0.00,WeatherDisplay:10.37,2013-05-04 00:12:00,
2013-05-03 20:17:00,78.8,58.0,29.99,SW,225,2.3,2.3,49,0.00,CLR,SCT,0.00,WeatherDisplay:10.37,2013-05-04 00:17:00,
2013-05-03 20:22:00,78.8,58.0,29.99,SW,225,2.3,2.3,49,0.00,CLR,SCT,0.00,WeatherDisplay:10.37,2013-05-04 00:22:00,
2013-05-03 20:27:00,78.8,58.0,30.00,SW,225,0.0,0.3,49,0.00,CLR,SCT,0.00,WeatherDisplay:10.37,2013-05-04 00:27:00,
2013-05-03 20:32:00,78.8,58.0,30.00,NE,45,2.3,2.3,49,0.00,CLR,SCT,0.00,WeatherDisplay:10.37,2013-05-04 00:32:00,
2013-05-03 20:37:00,78.6,57.9,30.00,SW,225,2.3,2.3,49,0.00,CLR,SCT,0.00,WeatherDisplay:10.37,2013-05-04 00:37:00,
2013-05-03 20:42:00,78.6,57.9,30.00,West,270,2.3,2.3,49,0.00,CLR,SCT,0.00,WeatherDisplay:10.37,2013-05-04 00:42:00,
2013-05-03 20:47:00,78.6,57.9,30.00,South,180,1.2,1.2,49,0.00,CLR,SCT,0.00,WeatherDisplay:10.37,2013-05-04 00:47:00,
2013-05-03 20:52:00,78.6,57.9,30.00,WSW,248,2.3,2.3,49,0.00,CLR,SCT,0.00,WeatherDisplay:10.37,2013-05-04 00:52:00,
2013-05-03 20:57:00,78.4,58.3,30.00,West,270,2.3,2.3,50,0.00,CLR,SCT,0.00,WeatherDisplay:10.37,2013-05-04 00:57:00,
2013-05-03 21:02:00,78.4,58.8,30.00,West,270,2.5,2.5,51,0.00,CLR,SCT,0.00,WeatherDisplay:10.37,2013-05-04 01:02:00,
2013-05-03 21:07:00,78.3,59.7,30.01,WNW,292,3.1,3.1,53,0.00,CLR,SCT,0.00,WeatherDisplay:10.37,2013-05-04 01:07:00,
2013-05-03 21:12:00,78.1,59.6,30.01,West,270,3.5,3.5,53,0.00,CLR,SCT,0.00,WeatherDisplay:10.37,2013-05-04 01:12:00,
2013-05-03 21:17:00,77.7,60.3,30.01,West,270,5.8,5.8,55,0.00,CLR,SCT,0.00,WeatherDisplay:10.37,2013-05-04 01:17:00,
2013-05-03 21:22:00,77.9,60.4,30.01,WNW,292,2.3,2.3,55,0.00,CLR,SCT,0.00,WeatherDisplay:10.37,2013-05-04 01:22:00,
2013-05-03 21:27:00,77.7,60.8,30.03,WNW,292,3.5,3.5,56,0.00,CLR,SCT,0.00,WeatherDisplay:10.37,2013-05-04 01:27:00,
2013-05-03 21:32:00,77.5,61.1,30.03,WNW,292,4.8,4.8,57,0.00,CLR,SCT,0.00,WeatherDisplay:10.37,2013-05-04 01:32:00,
2013-05-03 21:37:00,77.2,61.7,30.03,NNW,338,3.5,3.5,59,0.00,CLR,SCT,0.00,WeatherDisplay:10.37,2013-05-04 01:37:00,
2013-05-03 21:42:00,77.0,61.6,30.03,NW,315,8.1,8.1,59,0.00,CLR,SCT,0.00,WeatherDisplay:10.37,2013-05-04 01:42:00,
2013-05-03 21:47:00,76.8,61.9,30.03,NNE,22,4.6,4.6,60,0.00,CLR,SCT,0.00,WeatherDisplay:10.37,2013-05-04 01:47:00,
2013-05-03 21:52:00,76.6,62.2,30.03,West,270,4.6,4.6,61,0.00,CLR,SCT,0.00,WeatherDisplay:10.37,2013-05-04 01:52:00,
2013-05-03 21:57:00,76.5,62.0,30.03,NW,315,3.5,3.5,61,0.00,CLR,SCT,0.00,WeatherDisplay:10.37,2013-05-04 01:57:00,
2013-05-03 22:02:00,76.6,62.2,30.03,NW,315,2.4,2.4,61,0.00,CLR,SCT,0.00,WeatherDisplay:10.37,2013-05-04 02:02:00,
2013-05-03 22:07:00,76.3,62.3,30.03,NW,315,3.5,3.5,62,0.00,CLR,SCT,0.00,WeatherDisplay:10.37,2013-05-04 02:07:00,
2013-05-03 22:12:00,76.3,62.3,30.03,WSW,248,0.0,1.7,62,0.00,CLR,SCT,0.00,WeatherDisplay:10.37,2013-05-04 02:12:00,
2013-05-03 22:17:00,76.5,62.5,30.03,SW,225,1.6,1.6,62,0.00,CLR,SCT,0.00,WeatherDisplay:10.37,2013-05-04 02:17:00,
2013-05-03 22:22:00,76.3,62.3,30.03,West,270,2.3,2.3,62,0.00,CLR,SCT,0.00,WeatherDisplay:10.37,2013-05-04 02:22:00,
2013-05-03 22:27:00,76.3,62.3,30.02,SW,225,2.3,2.3,62,0.00,CLR,SCT,0.00,WeatherDisplay:10.37,2013-05-04 02:27:00,
2013-05-03 22:32:00,76.3,62.8,30.02,South,180,2.3,2.3,63,0.00,CLR,SCT,0.00,WeatherDisplay:10.37,2013-05-04 02:32:00,
2013-05-03 22:37:00,76.1,62.6,30.02,SSW,202,0.0,0.8,63,0.00,CLR,SCT,0.00,WeatherDisplay:10.37,2013-05-04 02:37:00,
2013-05-03 22:42:00,76.1,62.6,30.02,West,270,0.0,0.7,63,0.00,CLR,SCT,0.00,WeatherDisplay:10.37,2013-05-04 02:42:00,
2013-05-03 22:47:00,76.1,63.0,30.01,SSW,202,0.0,0.1,64,0.00,CLR,SCT,0.00,WeatherDisplay:10.37,2013-05-04 02:47:00,
2013-05-03 22:52:00,76.1,63.0,30.01,West,270,0.0,0.0,64,0.00,CLR,SCT,0.00,WeatherDisplay:10.37,2013-05-04 02:52:00,
2013-05-03 22:57:00,75.9,63.3,30.01,South,180,0.0,0.0,65,0.00,CLR,SCT,0.00,WeatherDisplay:10.37,2013-05-04 02:57:00,
2013-05-03 23:02:00,76.1,63.5,30.01,South,180,0.0,0.0,65,0.00,CLR,SCT,0.00,WeatherDisplay:10.37,2013-05-04 03:02:00,
2013-05-03 23:07:00,75.9,63.3,30.01,SSE,158,0.0,0.1,65,0.00,CLR,SCT,0.00,WeatherDisplay:10.37,2013-05-04 03:07:00,
2013-05-03 23:12:00,75.9,63.3,30.01,South,180,0.0,0.1,65,0.00,CLR,SCT,0.00,WeatherDisplay:10.37,2013-05-04 03:12:00,
2013-05-03 23:17:00,75.7,63.1,30.01,SW,225,0.0,0.0,65,0.00,CLR,SCT,0.00,WeatherDisplay:10.37,2013-05-04 03:17:00,
2013-05-03 23:22:00,75.6,63.0,30.01,SW,225,0.0,0.0,65,0.00,CLR,SCT,0.00,WeatherDisplay:10.37,2013-05-04 03:22:00,
2013-05-03 23:27:00,75.7,63.6,30.00,SW,225,0.0,0.0,66,0.00,CLR,SCT,0.00,WeatherDisplay:10.37,2013-05-04 03:27:00,
2013-05-03 23:32:00,75.6,63.4,30.00,SW,225,0.0,0.0,66,0.00,CLR,SCT,0.00,WeatherDisplay:10.37,2013-05-04 03:32:00,
2013-05-03 23:37:00,75.6,63.4,30.00,SW,225,0.0,0.0,66,0.00,CLR,SCT,0.00,WeatherDisplay:10.37,2013-05-04 03:37:00,
2013-05-03 23:42:00,75.4,63.2,30.00,WSW,248,0.0,0.0,66,0.00,CLR,SCT,0.00,WeatherDisplay:10.37,2013-05-04 03:42:00,
2013-05-03 23:47:00,75.2,63.5,30.00,SW,225,0.0,0.1,67,0.00,CLR,SCT,0.00,WeatherDisplay:10.37,2013-05-04 03:47:00,
2013-05-03 23:52:00,75.4,63.7,30.00,WSW,248,0.0,0.1,67,0.00,CLR,SCT,0.00,WeatherDisplay:10.37,2013-05-04 03:52:00,
2013-05-03 23:57:00,75.2,63.1,30.00,West,270,1.2,1.2,66,0.00,CLR,SCT,0.00,WeatherDisplay:10.37,2013-05-04 03:57:00,